Simultaneous Nadir Overpasses (SNOs) Predictions

Prediction of SNOs between TERRA and METOP-C Satellite Orbit:

Table of predicted SNOs for the next 14.0 days since TLE Epoch: 7/31/2021
Index Date (TERRA) Time (TERRA) Lat,Lon (TERRA) SZA (TERRA ) Date (METOP-C) Time (METOP-C) Lat,Lon (METOP-C) SZA (METOP-C ) Distance(km) Time Diff (sec)
1 08/02/2021 00:01:56 -81.30, 45.35 113.90 08/02/2021 00:01:31 -81.30, 45.31 113.92 1.03 25
2 08/02/2021 00:51:22 81.31,-146.90 66.13 08/02/2021 00:52:11 81.30,-146.93 66.14 0.84 49
3 08/04/2021 19:36:08 -81.30, 111.65 113.18 08/04/2021 19:35:51 -81.29, 111.62 113.19 0.57 17
4 08/04/2021 20:25:34 81.30, -80.62 66.85 08/04/2021 20:26:31 81.30, -80.60 66.88 0.44 57
5 08/07/2021 15:10:21 -81.29, 177.92 112.43 08/07/2021 15:10:12 -81.29, 177.92 112.42 0.73 9
6 08/07/2021 15:59:46 81.31, -14.01 67.65 08/07/2021 16:00:51 81.31, -13.90 67.69 1.89 65
7 08/10/2021 09:55:06 81.30, 76.91 68.41 08/10/2021 09:53:53 81.29, 76.75 68.36 2.95 73
8 08/10/2021 10:44:33 -81.29,-115.48 111.58 08/10/2021 10:44:32 -81.30,-115.41 111.58 1.23 1
9 08/10/2021 11:33:59 81.30, 52.19 68.43 08/10/2021 11:35:13 81.30, 52.01 68.45 3.09 74
10 08/13/2021 05:29:18 81.28, 143.08 69.22 08/13/2021 05:28:13 81.28, 143.03 69.19 0.91 65



Historial Predications of SNOs between TERRA and METOP-C
